Temp_Advection
nan nan nan nan nan nan nan nan nan nan nan nan nan nan nan nan nan nan nan nan nan nan nan nan nan nan nan nan nan nan nan nan nan nan nan nan nan nan nan nan nan nan
nan -0 -0 0 0 -0 -0 -0 -0 -0 -0 0 0 0 -0 -0 -0 -0 -0 -0 -0 -0 -0 -0 -0 -0 -0 -0 -0 -0 0 0 -0 -0 -0 -0 -0 -0 -0 -0 0 nan
nan -0 -0 -0 -0 0 0 0 -0 -0 -0 -0 -0 -0 -0 -0 -0 -0 -0 -0 -1 -0 -0 -0 -0 -0 -0 -0 -0 -0 -0 0 -0 -0 -0 0 -0 -0 -0 -0 -0 nan
nan -0 -0 -0 -0 -0 -0 -0 -0 -0 -0 -0 -0 -0 -0 -0 -0 -0 -0 -0 -0 -0 -0 -0 -0 -0 -0 0 0 0 0 0 0 -0 -0 -0 -0 -0 -0 -0 -0 nan
nan -1 -1 -1 -1 -1 -1 -0 -0 -0 -0 -0 -0 -0 -0 -0 -0 -0 -0 -0 -0 -0 -0 -0 -0 -0 -0 -0 0 0 0 0 0 0 0 0 0 -0 -0 -0 -0 nan
nan -1 -1 -1 -1 -1 -1 -1 -1 -1 -1 -0 -0 -1 -1 -0 -0 -0 -0 -0 -0 -0 -0 -0 -0 -0 -0 -0 -0 -0 -0 0 0 0 0 0 0 0 0 0 -0 nan
nan -1 -1 -1 -1 -1 -1 -1 -1 -1 -1 -1 -1 -1 -1 -1 -1 -1 -0 -0 -0 -0 -0 -0 -0 -0 -0 -0 -0 -0 -0 -0 0 0 -0 -0 0 0 0 0 0 nan
nan -1 -1 -1 -1 -1 -1 -1 -1 -1 -1 -1 -1 -1 -1 -1 -1 -0 -0 -0 -0 -0 -0 -0 -0 -0 -0 -0 -0 -0 -0 -0 0 0 0 -0 -0 0 0 0 0 nan
nan -1 -1 -1 -1 -1 -1 -1 -0 -0 -0 -0 -0 -0 -0 -0 -0 -0 -0 -0 -0 -0 -0 0 0 -0 -0 -0 -0 -0 0 0 0 0 0 0 -0 -0 0 0 0 nan
nan -0 -0 -0 -0 -0 -0 -0 -0 -0 -0 -0 -0 -0 -0 -0 -0 -0 -0 -0 -0 -0 -0 -0 0 0 0 -0 -0 -0 -0 -0 -0 0 0 0 0 0 0 0 0 nan
nan -0 -0 -0 -0 -0 -0 -0 -0 -0 -0 -0 -0 -0 -0 -0 -0 -0 -0 -0 -0 -0 -0 -0 -0 0 0 0 0 -0 -0 -0 -0 0 -0 -0 0 0 0 0 0 nan
nan -0 -0 -0 -0 -0 -0 -0 -0 -0 -0 -0 -0 -0 -0 -0 -0 -0 -0 -0 -0 -0 -0 -0 -0 -0 -0 -0 -0 -0 -0 -0 -0 -0 -0 -0 -0 -0 0 0 0 nan
nan -0 -0 -0 -0 -0 -0 -0 -0 -0 -0 -0 -0 -0 -0 -0 -0 -0 -0 -0 -0 -0 -0 -0 -0 -0 -0 -0 -0 -0 -0 -0 -0 -0 -0 0 -0 -0 -0 -0 -0 nan
nan -0 -0 -0 -0 -0 -0 -0 -0 -0 -0 -0 -0 -0 -0 -0 -0 -0 -0 -0 -1 -0 -0 -0 -0 -0 -0 -0 -0 -0 -0 -0 -0 -0 -0 0 0 -0 -0 -0 -0 nan
nan -0 -0 -0 -0 -0 -0 -0 -0 -0 -0 -0 -0 -0 -0 -0 -0 -0 -0 -0 -0 -0 -0 -0 -0 -0 -0 -0 -0 -0 -0 -1 -0 -0 -0 -0 0 0 -0 -0 -0 nan
nan -0 -0 -0 -0 -0 -0 -0 -0 -0 -0 -0 -0 -0 -0 -0 -0 -0 -0 -0 -0 -0 -0 -0 -0 -0 -0 -0 -0 -0 -0 -1 -0 -0 -0 -0 -0 -0 -0 0 0 nan
nan -0 -0 -0 -0 -0 -0 -0 -0 -0 -0 -0 -0 -0 -0 -0 -0 -0 -0 -0 -0 -0 -0 -0 -0 -0 -0 -0 -0 -0 -0 -1 -1 -1 -0 -0 -1 -1 -0 0 0 nan
nan -0 -0 -0 -0 -0 -0 -0 -0 -0 -0 -0 -0 -0 -0 -0 -0 -0 -0 -0 -0 -0 -0 -0 -0 -0 -0 -0 -0 0 0 -0 -1 -1 -1 -0 -1 -1 -1 -0 0 nan
nan -0 -0 0 0 -0 -0 -0 -0 -0 -0 -0 -0 -0 -0 -0 -0 -0 -0 -0 -0 -0 -0 -0 -0 -0 -0 -0 -0 0 0 0 -0 -1 -0 -0 -0 -1 -1 -1 -0 nan
nan -1 -1 -1 -0 -0 -0 -0 -0 -0 -0 -0 -0 -0 -0 0 0 -0 -0 -0 -0 -0 -0 -0 -0 -0 -0 -0 -0 -0 0 0 -0 -1 -0 0 -0 -0 -1 -1 -0 nan
nan -2 -3 -3 -3 -2 -2 -1 -1 -1 -0 -0 -1 -1 -0 -0 0 -0 -0 -0 -0 -0 -0 -0 0 -0 -0 -0 0 0 -0 -0 -0 -0 -0 -0 -0 -0 -0 -0 0 nan
nan -1 -2 -2 -2 -3 -3 -3 -2 -2 -1 -1 -1 -1 -1 -0 -0 -0 -0 -1 -0 -0 -1 -0 0 0 -0 -0 0 0 -0 -0 -1 -0 -0 -0 -1 -1 -1 -0 -0 nan
nan -0 -0 -0 -1 -1 -2 -2 -2 -2 -2 -1 -2 -2 -2 -2 -1 -0 -0 -1 -1 -1 -1 -1 -0 0 0 0 0 0 0 -0 -1 -0 -0 -0 -0 -1 -1 -1 -1 nan
nan -0 0 0 0 -0 -1 -1 -1 -1 -1 -1 -1 -1 -2 -2 -2 -1 -0 -0 -0 -1 -1 -1 -1 -1 0 0 0 1 0 -0 -0 -0 -0 -0 0 0 -0 -1 -1 nan
nan 0 0 0 1 1 0 -0 -0 -1 -0 -0 -0 -0 -1 -1 -2 -2 -1 -1 -0 -0 -0 -1 -1 -1 -1 -0 0 1 1 0 -0 -1 -1 -0 0 0 0 -1 -1 nan
nan nan nan nan nan nan nan nan nan nan nan nan nan nan nan nan nan nan nan nan nan nan nan nan nan nan nan nan nan nan nan nan nan nan nan nan nan nan nan nan nan nan
Wind_Speed
15 14 14 14 14 15 14 15 15 15 15 15 17 19 20 22 22 22 22 21 21 20 19 20 19 18 19 18 18 18 18 19 20 20 21 22 22 23 24 25 25 25
15 14 14 14 15 15 16 17 17 17 18 18 19 19 21 22 23 23 23 23 22 22 21 21 20 19 19 19 19 18 18 18 19 19 20 20 20 21 22 23 24 25
15 14 14 15 15 15 16 17 18 19 19 19 20 21 21 22 22 23 23 23 23 23 23 22 22 21 20 19 19 19 18 18 18 19 19 19 19 19 20 20 21 22
15 15 16 16 17 18 18 18 19 20 20 21 21 21 22 22 23 23 23 23 23 23 23 23 23 23 22 21 20 19 19 18 18 18 19 19 18 18 18 19 20 20
16 16 17 18 18 19 19 20 20 20 21 21 21 21 21 22 23 23 23 23 23 23 22 22 22 22 22 21 20 20 19 19 18 18 18 18 17 17 16 16 17 18
16 17 17 17 18 18 19 19 19 20 20 20 20 20 20 21 21 22 22 22 22 22 21 21 20 20 19 19 19 19 19 19 18 18 18 17 17 16 15 15 15 16
16 16 16 17 16 17 17 17 18 18 18 19 19 19 19 19 19 20 20 20 20 19 19 19 19 18 18 17 17 17 18 18 18 18 18 18 17 17 16 16 16 16
16 16 16 16 16 16 16 17 17 17 17 18 18 19 19 19 19 19 19 18 18 18 18 17 17 17 16 16 16 16 16 17 17 17 18 19 18 18 18 18 18 18
16 16 16 17 17 17 17 17 18 18 18 18 19 19 19 19 20 19 19 19 19 19 18 18 17 17 17 17 16 16 16 16 16 16 16 17 17 18 18 18 19 20
16 17 17 18 18 18 18 18 18 19 19 19 19 19 19 19 20 19 19 19 19 19 19 19 19 18 18 18 18 18 18 17 17 17 17 17 17 17 17 17 18 19
17 18 18 18 19 19 19 19 19 19 19 19 19 19 19 19 19 19 18 18 18 18 18 18 19 18 18 18 18 18 18 18 18 18 18 18 18 18 18 18 18 19
18 18 19 19 19 19 19 19 19 19 18 18 18 18 18 18 18 18 18 18 17 17 17 17 17 17 17 17 17 17 17 17 17 17 18 18 18 18 19 19 19 19
17 18 18 18 19 19 19 19 19 19 19 19 19 19 19 18 18 18 18 18 18 17 17 17 17 17 17 17 17 18 18 18 17 17 17 18 18 18 18 19 19 19
17 17 18 18 19 19 19 20 20 20 20 20 20 20 20 19 19 19 18 18 18 18 17 17 17 17 17 17 18 18 19 19 18 18 18 18 18 18 19 19 19 19
17 17 18 19 19 19 20 20 21 21 21 21 21 21 21 21 21 20 20 19 18 18 18 18 18 17 17 18 19 19 20 20 19 20 20 19 19 19 19 19 19 19
17 18 19 19 19 20 20 20 21 21 22 22 22 22 23 23 23 22 22 21 20 19 19 19 19 18 18 18 19 19 20 21 21 21 21 21 21 20 20 20 20 20
18 18 19 20 20 20 21 21 22 22 22 23 23 23 24 24 24 23 23 23 22 21 20 20 20 19 19 19 19 20 21 22 22 22 22 22 22 22 22 21 20 20
19 20 20 20 21 21 21 22 22 23 23 24 24 24 24 24 24 24 24 24 23 22 21 21 20 20 20 20 20 20 21 22 23 24 23 23 23 23 23 22 22 21
21 21 21 21 21 22 22 22 23 23 24 25 25 25 25 25 25 25 25 24 24 23 22 22 21 20 20 20 20 20 21 22 24 25 24 23 23 23 23 22 22 22
23 24 24 24 24 25 25 25 25 25 25 26 27 27 28 27 26 26 26 25 25 25 24 23 21 21 20 20 21 21 21 22 24 25 25 24 23 23 23 22 22 23
25 25 26 27 27 28 29 30 30 29 29 28 28 29 29 29 29 28 28 27 26 26 26 24 22 21 22 21 22 22 23 24 25 25 25 25 25 24 24 23 22 22
23 24 25 27 28 29 30 31 31 31 31 30 30 30 31 31 31 30 30 30 29 28 28 26 24 22 23 23 22 23 24 25 26 26 25 26 26 26 25 24 23 22
23 24 26 27 27 28 29 30 31 31 31 31 31 32 33 33 33 32 32 32 31 30 29 28 26 24 24 25 24 23 25 26 27 26 26 26 26 26 25 24 23 22
26 27 28 28 29 29 29 29 30 32 32 32 32 33 34 34 34 34 33 33 33 32 31 30 28 26 25 26 26 25 26 27 28 28 27 27 26 26 25 24 23 22
28 29 29 30 31 31 31 31 32 33 33 33 33 34 34 34 34 35 35 34 34 34 32 31 30 28 26 25 26 26 27 28 29 29 29 28 27 26 25 24 24 23
30 30 31 31 31 31 32 32 32 33 34 34 34 34 33 34 34 35 36 35 35 35 34 33 32 31 28 26 26 27 27 28 29 30 29 28 27 26 26 25 24 23
Wind_Direction
304 301 298 297 297 297 297 297 296 296 297 295 294 296 298 300 301 303 303 302 301 298 295 293 292 291 290 288 285 282 282 282 282 281 279 277 276 274 272 271 269 267
312 310 308 305 303 303 302 301 301 299 298 295 294 293 293 294 295 297 298 298 298 297 295 294 293 292 291 289 287 283 281 281 280 280 279 279 279 277 274 273 271 269
321 319 317 315 313 310 307 306 304 302 301 299 297 295 294 294 295 296 297 298 297 297 295 294 293 291 289 286 285 282 280 280 280 279 278 280 280 280 279 277 274 272
324 324 322 320 318 315 311 308 306 304 303 302 300 300 299 298 298 298 298 297 297 296 294 293 292 289 287 284 281 279 278 277 277 277 278 279 280 280 280 278 277 275
326 325 324 323 320 317 314 311 309 307 305 305 304 303 302 301 300 300 299 299 298 297 295 294 292 289 287 283 279 277 275 273 273 273 275 277 278 279 279 277 276 275
330 327 326 325 322 320 318 316 315 314 313 312 311 309 308 307 305 304 303 302 301 300 298 296 294 292 290 287 284 281 278 276 274 273 273 273 271 268 266 267 270 270
330 328 327 325 324 323 322 321 320 320 320 319 318 316 315 313 311 309 307 306 305 303 301 300 298 297 295 292 290 287 283 280 277 275 273 272 271 268 260 255 259 262
329 328 328 326 327 327 326 327 326 325 324 322 320 319 317 315 313 311 309 307 305 303 302 301 300 299 297 295 292 289 287 284 281 278 275 273 273 272 267 260 258 259
331 331 330 329 329 329 328 328 327 325 323 320 319 317 315 313 311 309 307 304 302 300 298 297 296 296 294 292 290 288 286 284 283 280 278 278 277 275 274 269 265 264
333 332 331 330 329 329 328 327 324 323 320 317 315 313 311 310 308 307 306 304 303 301 299 297 295 294 293 291 289 287 285 283 282 281 279 279 279 279 278 276 273 271
332 330 329 328 328 327 325 324 321 319 317 314 313 311 309 307 306 305 305 304 303 301 300 298 296 294 292 290 288 286 285 284 282 282 282 280 279 278 277 275 274 273
329 328 327 326 325 324 322 320 319 317 315 314 312 311 309 308 307 306 305 304 303 301 300 298 297 296 294 292 290 288 286 284 283 282 282 282 281 279 278 277 276 275
325 324 323 322 321 321 320 320 319 318 317 315 313 312 310 309 308 307 306 305 304 302 301 300 298 297 296 294 292 290 289 287 286 284 283 282 281 280 278 277 277 276
321 320 320 319 320 320 320 320 319 318 317 315 313 311 310 309 307 306 305 304 303 302 300 299 298 297 296 294 292 290 289 288 287 285 284 282 281 280 278 277 276 275
318 318 317 317 319 319 318 317 316 314 313 312 311 310 309 309 308 307 306 304 303 303 301 299 298 297 296 294 293 291 290 289 288 287 285 283 281 279 277 276 275 274
317 316 317 318 318 318 316 314 312 312 311 310 310 310 309 309 308 307 307 306 305 304 303 302 301 299 298 296 294 293 291 290 289 287 287 286 284 282 279 278 277 275
316 316 317 317 317 316 314 313 312 311 310 310 309 309 308 307 307 306 305 305 305 304 303 302 302 301 299 296 294 293 291 290 288 286 285 285 284 283 281 280 279 277
316 315 316 315 314 314 312 311 310 309 309 308 307 306 305 305 305 304 304 303 303 303 302 301 301 300 298 296 294 293 291 289 287 286 286 285 283 283 282 281 280 278
314 312 313 313 311 310 309 308 307 306 306 306 305 305 305 304 304 302 302 302 301 301 300 299 299 298 296 295 293 291 289 287 284 284 284 283 282 281 281 281 279 278
313 312 312 313 312 312 311 309 308 307 306 305 305 304 304 304 303 302 301 300 299 299 298 297 297 296 293 292 290 288 286 283 281 282 283 282 281 280 280 279 279 278
317 316 315 315 315 315 313 312 311 310 308 306 304 303 302 302 302 301 300 299 298 298 297 296 296 294 292 290 288 287 285 282 281 282 283 283 282 281 282 281 282 281
314 312 310 310 310 310 310 310 310 308 308 307 305 303 302 302 302 302 301 300 298 297 296 295 295 293 291 289 287 285 283 282 282 282 283 283 284 284 285 285 285 285
304 304 304 304 305 306 307 307 306 306 307 306 305 304 303 302 302 302 302 301 300 299 297 296 294 292 291 289 288 286 283 281 282 282 283 283 284 286 287 287 287 286
302 303 305 305 305 305 305 304 303 303 304 303 301 301 301 301 300 299 298 299 298 298 298 296 295 292 289 287 286 286 284 283 283 283 283 284 285 286 287 287 288 288
303 303 304 304 304 304 302 302 301 300 300 299 298 297 297 297 297 297 297 297 297 297 298 297 297 295 291 286 284 283 283 283 283 283 283 284 285 285 286 287 289 291
302 303 303 303 303 303 301 300 300 299 299 298 297 297 296 295 295 295 295 296 295 296 296 296 297 295 293 289 283 280 280 281 281 281 282 283 283 283 284 285 286 288
Height
1444 1443 1442 1442 1442 1441 1441 1440 1440 1439 1438 1437 1436 1435 1434 1433 1432 1432 1432 1431 1431 1430 1429 1429 1429 1429 1428 1428 1427 1427 1427 1427 1426 1426 1426 1426 1426 1426 1426 1426 1426 1426
1443 1442 1442 1441 1441 1440 1440 1439 1439 1438 1437 1436 1435 1434 1433 1432 1431 1431 1430 1430 1429 1428 1427 1427 1427 1427 1426 1426 1425 1425 1425 1425 1425 1424 1424 1424 1424 1424 1424 1424 1424 1425
1442 1442 1441 1441 1440 1440 1439 1438 1437 1436 1435 1434 1433 1433 1431 1431 1430 1429 1429 1428 1427 1426 1426 1425 1425 1425 1424 1424 1423 1423 1423 1423 1423 1422 1422 1422 1422 1422 1422 1422 1422 1422
1441 1440 1440 1439 1438 1438 1437 1437 1436 1435 1434 1433 1432 1431 1430 1429 1429 1428 1427 1427 1426 1425 1424 1423 1423 1423 1423 1422 1422 1422 1421 1421 1420 1420 1420 1420 1420 1420 1421 1421 1420 1420
1440 1439 1438 1438 1437 1436 1436 1435 1434 1433 1432 1431 1430 1430 1428 1428 1427 1427 1426 1425 1424 1423 1422 1421 1421 1421 1421 1421 1420 1420 1419 1419 1418 1418 1417 1418 1418 1419 1419 1419 1419 1419
1438 1437 1437 1436 1435 1435 1434 1433 1432 1431 1431 1430 1429 1428 1427 1426 1426 1425 1425 1424 1423 1422 1421 1419 1419 1418 1419 1419 1419 1418 1418 1417 1417 1416 1416 1416 1416 1417 1417 1418 1417 1417
1437 1436 1436 1435 1434 1433 1432 1431 1430 1429 1429 1428 1427 1427 1425 1425 1424 1424 1423 1422 1421 1420 1419 1418 1417 1416 1417 1417 1417 1416 1416 1416 1415 1415 1415 1415 1415 1415 1416 1416 1416 1416
1436 1435 1435 1433 1432 1432 1431 1430 1429 1428 1427 1427 1426 1425 1424 1424 1423 1422 1421 1420 1419 1418 1417 1417 1415 1415 1415 1415 1415 1414 1414 1414 1414 1414 1414 1413 1413 1413 1413 1414 1414 1414
1435 1434 1433 1432 1431 1431 1430 1429 1428 1427 1426 1425 1424 1424 1423 1422 1421 1421 1420 1418 1418 1417 1416 1415 1414 1414 1414 1413 1413 1413 1412 1412 1412 1412 1412 1412 1412 1411 1411 1412 1412 1412
1434 1433 1432 1431 1431 1430 1429 1428 1427 1426 1425 1424 1423 1423 1422 1421 1420 1419 1418 1417 1416 1415 1414 1413 1413 1412 1412 1412 1411 1411 1410 1410 1410 1410 1410 1410 1410 1410 1410 1410 1410 1410
1433 1432 1431 1430 1429 1429 1427 1427 1425 1424 1424 1423 1422 1421 1420 1420 1418 1417 1416 1415 1414 1413 1412 1412 1411 1411 1410 1410 1410 1409 1408 1408 1408 1408 1408 1408 1408 1408 1407 1408 1408 1408
1432 1431 1430 1429 1428 1427 1426 1425 1424 1423 1422 1422 1421 1420 1419 1418 1417 1416 1414 1413 1412 1411 1410 1409 1409 1408 1408 1408 1407 1407 1406 1406 1406 1406 1406 1406 1406 1405 1405 1405 1405 1405
1431 1430 1429 1428 1427 1426 1425 1424 1423 1422 1421 1420 1419 1418 1417 1416 1415 1414 1413 1411 1410 1409 1408 1407 1407 1406 1406 1405 1405 1404 1404 1403 1403 1403 1403 1403 1403 1403 1403 1403 1403 1403
1430 1429 1428 1427 1426 1424 1423 1422 1421 1420 1419 1418 1417 1416 1415 1414 1413 1412 1411 1409 1408 1407 1406 1406 1405 1405 1404 1403 1403 1402 1401 1401 1401 1401 1401 1401 1401 1401 1401 1401 1401 1401
1429 1428 1427 1425 1424 1423 1422 1420 1419 1418 1417 1416 1415 1414 1413 1411 1410 1409 1408 1407 1406 1405 1404 1404 1403 1403 1402 1401 1401 1400 1399 1398 1398 1398 1398 1399 1399 1399 1399 1399 1398 1398
1427 1426 1425 1424 1422 1421 1420 1419 1418 1416 1415 1414 1413 1411 1410 1409 1408 1407 1406 1405 1404 1403 1402 1401 1401 1401 1400 1399 1399 1398 1397 1396 1396 1396 1396 1396 1397 1397 1397 1396 1396 1395
1425 1424 1423 1422 1420 1419 1418 1417 1416 1414 1413 1412 1410 1409 1408 1407 1406 1404 1403 1402 1401 1401 1400 1399 1399 1398 1398 1397 1396 1395 1395 1393 1393 1393 1394 1394 1394 1394 1394 1393 1393 1392
1423 1421 1420 1419 1418 1417 1416 1414 1413 1412 1411 1409 1408 1407 1406 1404 1403 1402 1401 1400 1399 1398 1398 1397 1397 1396 1395 1394 1394 1393 1392 1391 1390 1390 1391 1391 1391 1391 1390 1390 1389 1388
1420 1419 1418 1417 1415 1414 1413 1412 1410 1409 1407 1406 1405 1404 1403 1402 1401 1400 1399 1398 1396 1396 1395 1395 1394 1394 1393 1392 1391 1391 1390 1389 1388 1387 1388 1388 1388 1387 1387 1386 1386 1385
1417 1415 1414 1413 1412 1410 1409 1407 1406 1405 1404 1402 1401 1400 1399 1398 1398 1397 1396 1395 1394 1393 1392 1392 1392 1391 1390 1389 1389 1388 1388 1387 1385 1385 1385 1385 1385 1384 1384 1383 1382 1382
1413 1411 1410 1409 1407 1406 1404 1403 1402 1401 1400 1399 1397 1396 1395 1394 1394 1393 1392 1392 1391 1390 1389 1389 1389 1388 1387 1387 1386 1385 1385 1383 1382 1382 1381 1381 1381 1380 1380 1380 1379 1378
1410 1408 1407 1405 1404 1403 1401 1400 1398 1397 1396 1395 1393 1393 1392 1391 1390 1389 1388 1387 1387 1386 1385 1385 1386 1385 1384 1383 1383 1382 1381 1380 1379 1378 1378 1377 1376 1376 1376 1376 1375 1374
1408 1407 1405 1403 1402 1400 1398 1397 1395 1394 1393 1391 1390 1388 1387 1387 1386 1385 1384 1383 1382 1382 1381 1381 1382 1382 1381 1380 1379 1379 1377 1376 1375 1374 1373 1373 1372 1371 1371 1371 1371 1371
1405 1403 1402 1400 1398 1396 1395 1393 1392 1390 1389 1388 1387 1385 1384 1383 1382 1381 1380 1379 1378 1377 1377 1376 1377 1378 1377 1376 1375 1375 1373 1371 1370 1370 1369 1368 1368 1367 1367 1366 1367 1367
1402 1400 1398 1397 1395 1393 1391 1390 1388 1387 1385 1384 1383 1381 1380 1379 1378 1376 1375 1375 1374 1373 1373 1372 1372 1372 1373 1372 1371 1371 1369 1368 1366 1365 1365 1364 1364 1363 1363 1362 1362 1363
1399 1397 1395 1393 1392 1390 1388 1386 1384 1383 1381 1380 1378 1377 1376 1374 1373 1372 1371 1370 1370 1369 1368 1368 1367 1367 1368 1368 1367 1366 1365 1364 1362 1361 1360 1360 1360 1360 1359 1359 1359 1359